STARLINK-1972 (47627 NORAD) Tracking and Keplerian Element Data
This shows tracking and keplerian element data for the satellite.
Feedback or suggestion? Click here.
Element | Value |
Catalog | 47627 |
Name | STARLINK-1972 |
Epoch Orbit | 177 |
Epoch Day | 101.91668981 |
Epoch Year | 2021 |
RAAN | 188.9216 |
Inclination | 53.0471 |
Eccentricity | 0.000472 |
Argument of Perigee | 8.1742 |
Mean Anonmoly | 65.8063 |
Mean Motion | 15.73248617 |
Decay Rate | -0.00019076 |
L1 | 1 47627U 21012H 21101.91668981 -.00019076 00000-0 -13137-3 0 9998 |
L2 | 2 47627 53.0471 188.9216 0004720 8.1742 65.8063 15.73248617 1775 |
Live tracking and technical data element details for STARLINK-1972 (NORAD 47627). STARLINK-1972 can be tracked NOW for your location showing map with azimuth and elevation plus other details from your city location.
Track the satellite on the map from your city or location and see movement details for azimuth, elevation, latitude, longitude, range, height, and movement on the map or in text.
IsCatalogInMostPopularTable: catalog: 47627, numindb: 13
Update: records affected: 1
GetName: 47627 STARLINK-1972
Hit Count: updated at: Tue, 13 Apr 2021 03:29:40 GMT